"Pseudo-MPEC" for P21DeJk

Created 2023 Jan 28 15:22:25 UT using Find_Orb

Click here for an explanation of pseudo-MPECs

 
 Astrometry: 
     P21DeJk* C2023 01 24_Q=%Kg64fU5c/.h01vf:Dpvm'@2Ihf^'=U,BvBVbRE%;Sm%?Ck3hF52
     P21DeJk  C2023 01 24/[C)GmL3+SP``M\\)Dh)I*6p//9UC[q,p:6a+lo6,/chFFf4OirfF52
     P21DeJk  C2023 01 249\uS7rAstrometryh.%_o#d1.0Dredacted;qj-96.$]Iw#c3ypJF52
     P21DeJk  C2023 01 24K^2Pw4ETRVc=7a4[IMqW-un1Lrt_KD/v\uMZdL4p)Q3tm!Up)Mj!F52
     P21DeJk  C2023 01 24u!NmOgMQ;0LBD6nX-Qdt%WPZMY`T#OYDC.1;\b0FiRj%!HfRf;2CF52
     P21DeJk |C2023 01 25klJ$-$'#.`!+I2F_O1+=uwwKdY]a$)2(jjcmxJn]M[*2do=\2l3Q807
     P21DeJk |C2023 01 25CQV-dclick9Ihv5pgYZZ2^)o1Sw(Hn[`Qf))vherekG5n61),xb@807
     P21DeJk |C2023 01 253N$pDi4wfpZ45te!$HQIpf=`Ql*gqkEg55UfUKf69U0X0h'akQM.807
     P21DeJk 3C2023 01 257Yb]=%$4pJU__0%:5F*N!o,27gs)r!7cZTGwY%e)O@h4Pm)?9gmoT14
     P21DeJk 3C2023 01 25\y'tAW9!H#5$2[)QdYq,G!T*@Gr3.gC(.x_Gyb$id(!F2-dE$KlZT14
     P21DeJk 3C2023 01 25%wIhwW/fort:qrSrL;w;%p7#j\\o)tZpU)^,`GST7explanationT14

Station data:
(807) Cerro Tololo Observatory, La Serena  (S30.169133 W70.805900)  Chile.
   Observer R. Holmes. 0.61-m f/6.5 astrograph + CCD.
(F52) Pan-STARRS 2, Haleakala  (N20.707382 W156.255910)  US/Hawaii.
   Observers J. Bulger, T. Dukes, T. Lowe, A. Schultz, M. Willman. Measurers
   K. Chambers, S. Chastel, T. de Boer, L. Denneau, J. Fairlamb, H.
   Flewelling, M. Huber, C.-C. Lin, E. Magnier, Y. Ramanjooloo, R. Wainscoat,
   R. Weryk. 1.8-m Ritchey-Chrétien + CCD.
(T14) Mauna Kea-UH/Tholen NEO Follow-Up (CFHT)  (N19.825252 W155.468876)
   US/Hawaii. 3.6-m Canada-France-Hawaii Telescope.

Orbital elements:  P21DeJk
   Perihelion 2023 Jan 14.56700 +/- 0.27 TT = 13:36:29 (JD 2459959.06700)
Epoch 2023 Jan 25.0 TT = JDT 2459969.5   Earth MOID: 0.0532   Ma: 0.0488
M   7.45477403 +/- 0.17             (J2000 ecliptic)             AutoNEOCP
n   0.71453823 +/- 0.00178          Peri.  213.07926 +/- 0.7
a   1.23913626 +/- 0.00205          Node   262.59309 +/- 0.45
e   0.1666203 +/- 0.00149           Incl.    2.28750 +/- 0.019
P   1.38/503.81d           H 25.87  G  0.15   U  8.5
q 1.03267090 +/- 0.000168    Q 1.44560163 +/- 0.00424
From 11 observations 2023 Jan. 24-25 (27.4 hr); mean residual 0".06
Residuals in arcseconds: 
230124 F52  .19+  .03-    230124 F52  .02-  .00     230125 T14  .01+  .01+    
230124 F52  .15-  .01+    230125 807  .00   .04+    230125 T14  .02-  .00     
230124 F52  .02+  .08+    230125 807  .00   .05-    230125 T14  .01+  .01-    
230124 F52  .04-  .04-    230125 807  .00   .02-    

Ephemerides (geocentric):
Date (UTC) HH   RA             Dec           delta  r     elong  mag " sig PA
---- --------  ------------   ------------  ------ ------ -----  --- --------
2023 01 28 15  10 05 22.149   -16 50 16.96  .06777 1.0372 139.4 21.7 1.35 160
2023 01 28 16  10 05 26.450   -16 51 24.45  .06780 1.0372 139.4 21.7 1.38 160
2023 01 28 17  10 05 30.744   -16 52 31.76  .06782 1.0373 139.4 21.7 1.41 160
2023 01 28 18  10 05 35.031   -16 53 38.89  .06784 1.0373 139.4 21.7 1.44 159
2023 01 28 19  10 05 39.312   -16 54 45.85  .06787 1.0373 139.4 21.7 1.48 159
2023 01 28 20  10 05 43.585   -16 55 52.62  .06789 1.0373 139.4 21.7 1.51 159
2023 01 28 21  10 05 47.851   -16 56 59.22  .06791 1.0374 139.4 21.7 1.54 158
2023 01 28 22  10 05 52.111   -16 58 05.64  .06793 1.0374 139.4 21.7 1.57 158
2023 01 28 23  10 05 56.364   -16 59 11.88  .06796 1.0374 139.4 21.7 1.61 158
2023 01 29 00  10 06 00.609   -17 00 17.94  .06798 1.0375 139.4 21.7 1.64 158
2023 01 29 01  10 06 04.848   -17 01 23.82  .06800 1.0375 139.4 21.7 1.68 158
2023 01 29 02  10 06 09.080   -17 02 29.53  .06803 1.0375 139.4 21.7 1.71 157
2023 01 29 03  10 06 13.305   -17 03 35.06  .06805 1.0375 139.4 21.7 1.75 157
2023 01 29 04  10 06 17.523   -17 04 40.41  .06807 1.0376 139.5 21.7 1.78 157
2023 01 29 05  10 06 21.734   -17 05 45.58  .06809 1.0376 139.5 21.7 1.82 157
2023 01 29 06  10 06 25.938   -17 06 50.57  .06812 1.0376 139.5 21.7 1.85 156
2023 01 29 07  10 06 30.135   -17 07 55.39  .06814 1.0376 139.5 21.7 1.89 156
2023 01 29 08  10 06 34.326   -17 09 00.03  .06816 1.0377 139.5 21.7 1.92 156
2023 01 29 09  10 06 38.509   -17 10 04.49  .06819 1.0377 139.5 21.7 1.96 156
2023 01 29 10  10 06 42.686   -17 11 08.77  .06821 1.0377 139.5 21.7 2.00 156
2023 01 29 11  10 06 46.856   -17 12 12.88  .06823 1.0378 139.5 21.7 2.04 155
2023 01 29 12  10 06 51.019   -17 13 16.81  .06826 1.0378 139.5 21.7 2.07 155
2023 01 29 13  10 06 55.175   -17 14 20.56  .06828 1.0378 139.5 21.7 2.11 155
2023 01 29 14  10 06 59.324   -17 15 24.14  .06830 1.0378 139.5 21.7 2.15 155
2023 01 29 15  10 07 03.466   -17 16 27.53  .06833 1.0379 139.5 21.7 2.19 155
2023 01 29 16  10 07 07.602   -17 17 30.76  .06835 1.0379 139.5 21.7 2.23 155
2023 01 29 17  10 07 11.730   -17 18 33.80  .06838 1.0379 139.5 21.7 2.27 154
2023 01 29 18  10 07 15.852   -17 19 36.67  .06840 1.0380 139.5 21.7 2.31 154
2023 01 29 19  10 07 19.967   -17 20 39.36  .06842 1.0380 139.6 21.7 2.35 154
2023 01 29 20  10 07 24.075   -17 21 41.87  .06845 1.0380 139.6 21.7 2.39 154
2023 01 29 21  10 07 28.176   -17 22 44.21  .06847 1.0380 139.6 21.7 2.43 154
2023 01 29 22  10 07 32.271   -17 23 46.37  .06849 1.0381 139.6 21.7 2.47 154
2023 01 29 23  10 07 36.358   -17 24 48.36  .06852 1.0381 139.6 21.7 2.51 154
2023 01 30 00  10 07 40.439   -17 25 50.17  .06854 1.0381 139.6 21.7 2.55 153
2023 01 30 01  10 07 44.513   -17 26 51.80  .06857 1.0382 139.6 21.7 2.59 153
2023 01 30 02  10 07 48.580   -17 27 53.25  .06859 1.0382 139.6 21.7 2.63 153
2023 01 30 03  10 07 52.640   -17 28 54.53  .06861 1.0382 139.6 21.7 2.68 153
2023 01 30 04  10 07 56.693   -17 29 55.64  .06864 1.0382 139.6 21.7 2.72 153
2023 01 30 05  10 08 00.740   -17 30 56.57  .06866 1.0383 139.6 21.7 2.76 153
2023 01 30 06  10 08 04.780   -17 31 57.32  .06869 1.0383 139.6 21.7 2.80 153
2023 01 30 07  10 08 08.813   -17 32 57.90  .06871 1.0383 139.6 21.7 2.85 152
2023 01 30 08  10 08 12.839   -17 33 58.30  .06873 1.0384 139.7 21.7 2.89 152
2023 01 30 09  10 08 16.858   -17 34 58.53  .06876 1.0384 139.7 21.7 2.94 152
2023 01 30 10  10 08 20.871   -17 35 58.58  .06878 1.0384 139.7 21.7 2.98 152
2023 01 30 11  10 08 24.876   -17 36 58.45  .06881 1.0385 139.7 21.7 3.02 152
2023 01 30 12  10 08 28.875   -17 37 58.15  .06883 1.0385 139.7 21.7 3.07 152
2023 01 30 13  10 08 32.868   -17 38 57.68  .06886 1.0385 139.7 21.7 3.11 152
2023 01 30 14  10 08 36.853   -17 39 57.03  .06888 1.0385 139.7 21.7 3.16 152